Maplewood, Minnesota, United States
Lat: 44.95N, Lon: 93W
Wx Zone: MNZ062
Local Info
Past Weather Observations for Thursday, April 28, 2016

NOTE: This archive is for the closest National Weather Service station to Maplewood. Information may differ from the station used for current weather conditions.

Click here for Long-term Archive

Time Weather Temperature Dewpoint Humidity Pressure Winds Precip Visibility
23:53
Partly Cloudy
37°F / 3°C 36°F / 2°C 93% 30.15 in
(1021 mb)
Calm 0.00 in
(0.00 mm)
10SM
23:41
Partly Cloudy
37°F / 3°C 36°F / 2°C 93% 30.15 in
(1021 mb)
S 3.5 mph
(S 6 kph)
0.00 in
(0.00 mm)
10SM
23:20
Overcast
39°F / 4°C 37°F / 3°C 93% 30.15 in
(1021 mb)
S 4.6 mph
(S 7 kph)
0.00 in
(0.00 mm)
10SM
22:53
Overcast
Light Rain
39°F / 4°C 37°F / 3°C 93% 30.15 in
(1021 mb)
S 5.8 mph
(S 9 kph)
0.00 in
(0.00 mm)
10SM
22:51
Overcast
Light Rain
39°F / 4°C 37°F / 3°C 93% 30.15 in
(1021 mb)
S 5.8 mph
(S 9 kph)
0.00 in
(0.00 mm)
10SM
22:43
Overcast
Light Rain
39°F / 4°C 37°F / 3°C 93% 30.15 in
(1021 mb)
SSE 9.2 mph
(SSE 15 kph)
0.00 in
(0.00 mm)
10SM
22:27
Overcast
Light Rain
39°F / 4°C 37°F / 3°C 93% 30.15 in
(1021 mb)
SE 6.9 mph
(SE 11 kph)
0.00 in
(0.00 mm)
10SM
21:53
Overcast
Light Rain
41°F / 5°C 37°F / 3°C 87% 30.15 in
(1021 mb)
SE 3.5 mph
(SE 6 kph)
0.03 in
(0.76 mm)
8SM
21:46
Overcast
Light Rain
39°F / 4°C 37°F / 3°C 93% 30.15 in
(1021 mb)
SE 4.6 mph
(SE 7 kph)
0.03 in
(0.76 mm)
10SM
21:00
Overcast
Light Rain
39°F / 4°C 37°F / 3°C 93% 30.15 in
(1021 mb)
ESE 3.5 mph
(ESE 6 kph)
0.01 in
(0.25 mm)
8SM
20:53
Overcast
Light Rain
41°F / 5°C 37°F / 3°C 87% 30.15 in
(1021 mb)
E 3.5 mph
(E 6 kph)
0.03 in
(0.76 mm)
7SM
20:00
Overcast
Light Rain
41°F / 5°C 37°F / 3°C 87% 30.12 in
(1020 mb)
ENE 5.8 mph
(ENE 9 kph)
0.01 in
(0.25 mm)
6SM
19:53
Overcast
Light Rain
41°F / 5°C 37°F / 3°C 87% 30.12 in
(1020 mb)
ENE 5.8 mph
(ENE 9 kph)
0.07 in
(1.78 mm)
6SM
19:38
Overcast
Light Rain
41°F / 5°C 39°F / 4°C 93% 30.12 in
(1020 mb)
ENE 5.8 mph
(ENE 9 kph)
0.06 in
(1.52 mm)
5SM
19:21
Overcast
Light Rain
41°F / 5°C 37°F / 3°C 87% 30.12 in
(1020 mb)
NNE 4.6 mph
(NNE 7 kph)
0.04 in
(1.02 mm)
5SM
18:53
Overcast
Rain
41°F / 5°C 37°F / 3°C 87% 30.09 in
(1019 mb)
N 3.5 mph
(N 6 kph)
0.09 in
(2.29 mm)
3SM
18:48
Overcast
Rain
41°F / 5°C 37°F / 3°C 87% 30.09 in
(1019 mb)
NE 3.5 mph
(NE 6 kph)
0.09 in
(2.29 mm)
3SM
18:39
Overcast
Rain
41°F / 5°C 37°F / 3°C 87% 30.09 in
(1019 mb)
ENE 3.5 mph
(ENE 6 kph)
0.07 in
(1.78 mm)
3SM
18:11
Overcast
Light Rain
41°F / 5°C 37°F / 3°C 87% 30.09 in
(1019 mb)
NE 4.6 mph
(NE 7 kph)
0.02 in
(0.51 mm)
5SM
17:53
Overcast
Light Rain
43°F / 6°C 37°F / 3°C 81% 30.09 in
(1019 mb)
NE 5.8 mph
(NE 9 kph)
0.01 in
(0.25 mm)
8SM
16:53
Overcast
Light Rain
41°F / 5°C 37°F / 3°C 87% 30.09 in
(1019 mb)
NE 3.5 mph
(NE 6 kph)
0.03 in
(0.76 mm)
6SM
15:53
Overcast
Light Rain
41°F / 5°C 36°F / 2°C 81% 30.06 in
(1018 mb)
ENE 8.1 mph
(ENE 13 kph)
0.04 in
(1.02 mm)
6SM
14:53
Overcast
Light Rain
41°F / 5°C 36°F / 2°C 81% 30.06 in
(1018 mb)
ENE 15 mph
(ENE 24 kph)
0.05 in
(1.27 mm)
8SM
13:53
Overcast
Light Rain
41°F / 5°C 36°F / 2°C 81% 30.06 in
(1018 mb)
E 13.8 mph
(E 22 kph)
0.02 in
(0.51 mm)
9SM
12:53
Overcast
Light Rain
41°F / 5°C 36°F / 2°C 81% 30.04 in
(1017 mb)
ENE 18.4 mph
(ENE 30 kph)
0.00 in
(0.00 mm)
10SM
11:53
Overcast
41°F / 5°C 36°F / 2°C 81% 30.04 in
(1017 mb)
ENE 12.7 mph
(ENE 20 kph)
0.00 in
(0.00 mm)
10SM
10:53
Overcast
Light Rain
39°F / 4°C 34°F / 1°C 81% 30.04 in
(1017 mb)
E 8.1 mph
(E 13 kph)
0.00 in
(0.00 mm)
10SM
09:53
Overcast
Light Rain
39°F / 4°C 34°F / 1°C 81% 30.01 in
(1016 mb)
ENE 10.4 mph
(ENE 17 kph)
0.02 in
(0.51 mm)
10SM
08:53
Overcast
Light Rain
37°F / 3°C 32°F / 0°C 81% 30.01 in
(1016 mb)
ENE 10.4 mph
(ENE 17 kph)
0.02 in
(0.51 mm)
7SM
07:53
Overcast
Light Rain
37°F / 3°C 32°F / 0°C 81% 29.98 in
(1015 mb)
ENE 6.9 mph
(ENE 11 kph)
0.07 in
(1.78 mm)
7SM
06:53
Overcast
Light Rain
37°F / 3°C 32°F / 0°C 81% 29.98 in
(1015 mb)
ENE 9.2 mph
(ENE 15 kph)
0.04 in
(1.02 mm)
7SM
05:53
Overcast
Light Rain
39°F / 4°C 32°F / 0°C 75% 29.95 in
(1014 mb)
NE 6.9 mph
(NE 11 kph)
0.01 in
(0.25 mm)
10SM
04:53
Overcast
Light Rain
39°F / 4°C 34°F / 1°C 81% 29.92 in
(1013 mb)
NNE 6.9 mph
(NNE 11 kph)
0.02 in
(0.51 mm)
6SM
03:53
Overcast
39°F / 4°C 36°F / 2°C 87% 29.92 in
(1013 mb)
NE 8.1 mph
(NE 13 kph)
0.00 in
(0.00 mm)
10SM
02:53
Overcast
Light Rain
41°F / 5°C 36°F / 2°C 81% 29.89 in
(1012 mb)
ENE 11.5 mph
(ENE 19 kph)
0.01 in
(0.25 mm)
7SM
01:53
Overcast
43°F / 6°C 34°F / 1°C 71% 29.92 in
(1013 mb)
ENE 15 mph
(ENE 24 kph)
0.00 in
(0.00 mm)
10SM
00:53
Overcast
Light Rain
43°F / 6°C 34°F / 1°C 71% 29.92 in
(1013 mb)
ENE 13.8 mph
(ENE 22 kph)
0.02 in
(0.51 mm)
10SM
Time Weather Temperature Dewpoint Humidity Pressure Winds Precip Visibility


Weather for websites

WeatherForYou.com, LLC is not responsible for any damages or problems caused by this service. Current weather conditions are obtained from the closest station including government and personal stations which may have varying degrees of accuracy. Weather forecasts are derived from the NOAA NDFD. Like all things, this site belongs to Jesus Christ... He just trusts us to maintain it. If you have any questions or comments email webmaster@weatherforyou.com

Copyright © 2016, WeatherForYou.com LLC. All rights reserved.